﻿Date & Time ,Temp,SpC,Salinity,DO%,DO Conc,DO ,Depth,pH,Chl
6/1/05 0:00,11.18,44.21,28.45,84.9,7.79,39,8.498,7.72,
6/1/05 0:15,11.17,44.16,28.41,87.4,8.02,40,8.583,7.74,
6/1/05 0:30,11.3,43.91,28.24,89.3,8.18,40,8.655,7.76,
6/1/05 0:45,11.31,43.88,28.22,89.5,8.2,40,8.727,7.76,
6/1/05 1:00,11.29,43.9,28.24,89.5,8.2,40,8.803,7.74,
6/1/05 1:15,11.07,44.38,28.56,85,7.81,39,8.892,7.71,
6/1/05 1:30,11.08,44.45,28.62,84.3,7.74,39,8.97,7.72,
6/1/05 1:45,11.07,44.63,28.74,83.9,7.7,40,9.052,7.71,
6/1/05 2:00,11.08,44.67,28.77,84,7.71,39,9.12,7.72,
6/1/05 2:15,11.08,44.68,28.78,84,7.71,39,9.149,7.72,
6/1/05 2:30,11.09,44.68,28.78,83.6,7.67,39,9.184,7.72,
6/1/05 2:45,11.08,44.7,28.79,83.5,7.66,39,9.195,7.72,
6/1/05 3:00,11.08,44.69,28.78,83.3,7.64,39,9.197,7.7,
6/1/05 3:15,11.08,44.69,28.79,82.7,7.58,39,9.201,7.71,
6/1/05 3:30,11.07,44.7,28.79,82.1,7.53,39,9.201,7.71,
6/1/05 3:45,11.06,44.72,28.81,81.8,7.5,39,9.197,7.7,
6/1/05 4:00,11.09,44.58,28.71,80.3,7.37,39,9.196,7.66,
6/1/05 4:15,11.07,44.69,28.79,81.1,7.44,39,9.197,7.69,
6/1/05 4:30,11,44.84,28.89,84.5,7.76,39,9.182,7.72,
6/1/05 4:45,10.96,44.93,28.95,85.6,7.86,39,9.117,7.74,
6/1/05 5:00,10.96,44.92,28.94,85.4,7.85,39,9.031,7.74,
6/1/05 5:15,10.96,44.94,28.96,85.2,7.83,39,8.951,7.75,
6/1/05 5:30,10.89,45.12,29.08,85.3,7.84,39,8.868,7.75,
6/1/05 5:45,10.9,45.09,29.06,85.1,7.82,39,8.787,7.76,
6/1/05 6:00,10.93,45.03,29.02,84.8,7.79,39,8.713,7.75,
6/1/05 6:15,10.93,45,29,84.8,7.79,39,8.645,7.74,
6/1/05 6:30,10.94,44.99,28.99,84.8,7.79,39,8.57,7.75,
6/1/05 6:45,10.94,44.96,28.97,85.1,7.82,39,8.501,7.76,
6/1/05 7:00,10.95,44.96,28.97,84.8,7.79,39,8.439,7.75,
6/1/05 7:15,10.95,44.94,28.96,84.9,7.8,39,8.395,7.75,
6/1/05 7:30,10.96,44.92,28.94,84.9,7.8,39,8.349,7.75,
6/1/05 7:45,10.97,44.9,28.93,84.6,7.78,39,8.313,7.74,
6/1/05 8:00,10.96,44.91,28.93,84.5,7.76,39,8.31,7.73,
6/1/05 8:15,10.96,44.87,28.91,84.5,7.76,39,8.304,7.74,
6/1/05 8:30,11,44.79,28.85,85.1,7.81,39,8.321,7.73,
6/1/05 8:45,11.02,44.73,28.81,85.1,7.82,39,8.343,7.74,
6/1/05 9:00,11.05,44.67,28.77,85.8,7.88,39,8.365,7.75,
6/1/05 9:15,11.11,44.56,28.69,85.6,7.85,39,8.382,7.74,
6/1/05 9:30,11.15,44.51,28.66,85.7,7.85,39,8.401,7.73,
6/1/05 9:45,11.18,44.45,28.62,86.1,7.89,39,8.417,7.72,
6/1/05 10:00,11.19,44.45,28.62,85.2,7.8,39,8.43,7.71,
6/1/05 10:15,11.21,44.42,28.6,85.4,7.82,39,8.441,7.71,
6/1/05 10:30,11.24,44.37,28.57,84.9,7.77,39,8.467,7.72,
6/1/05 10:45,11.25,44.34,28.55,85.9,7.86,39,8.489,7.71,
6/1/05 11:00,11.25,44.36,28.56,85.3,7.81,39,8.499,7.72,
6/1/05 11:15,11.28,44.33,28.54,86.1,7.88,40,8.522,7.73,
6/1/05 11:30,11.3,44.27,28.49,88.4,8.09,40,8.546,7.75,
6/1/05 11:45,11.49,43.97,28.29,93.5,8.53,40,8.567,7.79,
6/1/05 12:00,11.52,43.92,28.26,94,8.57,40,8.608,7.78,
6/1/05 12:15,11.5,43.94,28.27,94.6,8.63,40,8.674,7.79,
6/1/05 12:30,11.61,43.81,28.18,97.2,8.85,40,8.74,7.8,
6/1/05 12:45,11.52,43.97,28.29,93.4,8.51,40,8.811,7.78,
6/1/05 13:00,11.41,44.13,28.4,89.1,8.14,40,8.908,7.73,
6/1/05 13:15,11.31,44.23,28.47,88.8,8.12,40,9.049,7.75,
6/1/05 13:30,11.14,44.7,28.8,83.8,7.68,39,8.942,7.71,
6/1/05 13:45,11.14,44.7,28.8,83.4,7.64,39,9.013,7.7,
6/1/05 14:00,11.12,44.81,28.87,83,7.6,39,9.091,7.7,8
6/1/05 14:15,11.15,44.8,28.87,83.9,7.68,39,9.205,7.71,8.8
6/1/05 14:30,11.13,44.83,28.89,83.1,7.61,39,9.226,7.71,6.3
6/1/05 14:45,11.12,44.85,28.9,82.4,7.55,39,9.234,7.71,7.1
6/1/05 15:00,11.12,44.85,28.9,82.1,7.52,39,9.231,7.7,8.3
6/1/05 15:15,11.18,44.76,28.84,82.5,7.55,39,9.238,7.7,8.4
6/1/05 15:30,11.13,44.84,28.89,82.1,7.52,39,9.243,7.7,8.7
6/1/05 15:45,11.13,44.82,28.88,81.6,7.47,39,9.272,7.7,9.1
6/1/05 16:00,11.18,44.73,28.82,82.7,7.57,39,9.237,7.69,9.6
6/1/05 16:15,11.29,44.54,28.69,85.6,7.82,39,9.227,7.73,10
6/1/05 16:30,10.89,45.38,29.27,86.3,7.93,39,9.236,7.78,9.9
6/1/05 16:45,11.01,45.06,29.04,86.4,7.92,39,9.175,7.77,11.8
6/1/05 17:00,10.99,45.14,29.1,86.1,7.9,39,9.182,7.76,12
6/1/05 17:15,10.98,45.14,29.1,85.9,7.88,39,9.194,7.77,11.7
6/1/05 17:30,10.95,45.22,29.16,85.9,7.88,39,9.149,7.77,12.1
6/1/05 17:45,11,45.03,29.03,85.4,7.84,39,9.222,7.76,12.5
6/1/05 18:00,10.98,45.12,29.09,85.4,7.84,39,9.189,7.75,12.8
6/1/05 18:15,11,45.07,29.05,85.6,7.85,39,9.188,7.76,10.6
6/1/05 18:30,11.02,45.03,29.03,85.6,7.85,39,9.181,7.75,11.2
6/1/05 18:45,11.03,45,29.01,85.4,7.83,39,9.145,7.75,11.1
6/1/05 19:00,11.03,44.99,29,84.9,7.78,39,9.079,7.76,10.5
6/1/05 19:15,11.03,44.97,28.98,84.9,7.79,39,9.006,7.76,10.4
6/1/05 19:30,11.04,44.95,28.97,85.2,7.81,39,8.934,7.76,10.7
6/1/05 19:45,11.06,44.91,28.94,85.1,7.8,39,8.859,7.76,10.7
6/1/05 20:00,11.07,44.87,28.92,85.3,7.82,39,8.794,7.76,10.6
6/1/05 20:15,11.1,44.83,28.88,85.8,7.86,39,8.741,7.76,11.2
6/1/05 20:30,11.13,44.77,28.84,86.3,7.91,39,8.697,7.75,11.5
6/1/05 20:45,11.16,44.7,28.79,86.7,7.94,40,8.664,7.76,11.4
6/1/05 21:00,11.19,44.63,28.75,87.1,7.97,40,8.645,7.75,11.5
6/1/05 21:15,11.2,44.61,28.73,87,7.96,40,8.642,7.76,11.6
6/1/05 21:30,11.24,44.5,28.65,87.6,8.02,40,8.655,7.77,11.3
6/1/05 21:45,11.3,44.37,28.57,88.7,8.1,40,8.676,7.77,9.9
6/1/05 22:00,11.38,44.24,28.48,90,8.22,40,8.708,7.77,9.9
6/1/05 22:15,11.5,44.07,28.36,92.1,8.39,40,8.724,7.78,10.6
6/1/05 22:30,11.52,44.03,28.33,92,8.38,40,8.751,7.79,10.2
6/1/05 22:45,11.51,44.01,28.32,92.3,8.41,40,8.765,7.8,10.2
6/1/05 23:00,11.27,44.45,28.62,87.5,8,39,8.776,7.76,10
6/1/05 23:15,11.5,44.09,28.38,90.8,8.28,40,8.792,7.79,9.9
6/1/05 23:30,11.51,44.06,28.36,90.8,8.27,40,8.811,7.79,9.7
6/1/05 23:45,11.48,44.11,28.39,90,8.2,40,8.823,7.76,9.7
6/2/05 0:00,11.45,44.14,28.41,89.4,8.16,40,8.844,7.76,10.3
6/2/05 0:15,11.45,44.15,28.42,89.2,8.13,40,8.872,7.76,10.4
6/2/05 0:30,11.33,44.21,28.46,86.6,7.91,40,8.886,7.73,9.3
6/2/05 0:45,11.31,44.23,28.47,84.4,7.72,39,8.924,7.72,10.4
6/2/05 1:00,11.32,44.31,28.52,85.6,7.82,39,8.958,7.74,9.4
6/2/05 1:15,11.37,44.22,28.46,86.3,7.88,39,9.013,7.75,9.5
6/2/05 1:30,11.34,44.26,28.49,85.4,7.81,39,9.094,7.74,8.5
6/2/05 1:45,11.33,44.15,28.41,85.7,7.83,39,9.159,7.73,8.8
6/2/05 2:00,11.35,44.14,28.4,86.5,7.91,39,9.218,7.74,9.1
6/2/05 2:15,11.38,44.08,28.36,87,7.95,40,9.23,7.74,8.8
6/2/05 2:30,11.4,44.03,28.33,88,8.04,40,9.235,7.74,8.7
6/2/05 2:45,11.48,43.95,28.28,89.4,8.16,40,9.251,7.76,7.7
6/2/05 3:00,11.55,43.92,28.25,89.8,8.18,40,9.26,7.77,8.1
6/2/05 3:15,11.51,43.91,28.25,89.7,8.18,40,9.266,7.75,8.4
6/2/05 3:30,11.45,43.96,28.28,87.7,8.01,40,9.268,7.73,7.2
6/2/05 3:45,11.48,43.93,28.26,88.3,8.06,39,9.263,7.74,8.5
6/2/05 4:00,11.69,43.69,28.1,90.5,8.23,40,9.274,7.79,7.7
6/2/05 4:15,11.51,43.92,28.26,88.2,8.04,40,9.273,7.75,7.9
6/2/05 4:30,11.23,44.38,28.57,83.1,7.61,39,9.264,7.7,8.7
6/2/05 4:45,11.21,44.49,28.65,81.8,7.48,39,9.25,7.69,8.8
6/2/05 5:00,11.18,44.62,28.74,82.1,7.52,39,9.239,7.71,8.1
6/2/05 5:15,11.22,44.46,28.63,83,7.6,39,9.181,7.72,8.5
6/2/05 5:30,11.25,44.33,28.54,84,7.69,39,9.156,7.72,7.5
6/2/05 5:45,11.24,44.33,28.54,83.9,7.69,39,9.086,7.71,7.5
6/2/05 6:00,11.24,44.32,28.53,84,7.69,39,9.013,7.72,8.1
6/2/05 6:15,11.23,44.34,28.54,83.8,7.67,39,8.932,7.72,8.2
6/2/05 6:30,11.22,44.34,28.54,83.5,7.65,39,8.844,7.72,9.1
6/2/05 6:45,11.22,44.34,28.54,83.5,7.64,39,8.758,7.72,9.3
6/2/05 7:00,11.23,44.33,28.54,83.2,7.62,39,8.666,7.7,8.5
6/2/05 7:15,11.22,44.34,28.54,82.9,7.59,39,8.583,7.7,8.8
6/2/05 7:30,11.23,44.34,28.54,83.2,7.62,39,8.513,7.7,9.2
6/2/05 7:45,11.24,44.32,28.53,83.2,7.62,39,8.44,7.72,8.8
6/2/05 8:00,11.24,44.3,28.52,83.6,7.65,39,8.383,7.72,8.1
6/2/05 8:15,11.27,44.22,28.46,83.9,7.68,39,8.328,7.71,8
6/2/05 8:30,11.28,44.17,28.43,84,7.69,39,8.277,7.72,7.6
6/2/05 8:45,11.32,44.08,28.36,84.5,7.73,39,8.236,7.72,7.2
6/2/05 9:00,11.32,44.08,28.36,84.1,7.69,39,8.205,7.71,6.9
6/2/05 9:15,11.34,44.05,28.34,84.5,7.73,39,8.187,7.71,6.8
6/2/05 9:30,11.34,44.05,28.34,84.4,7.72,39,8.185,7.71,6.4
6/2/05 9:45,11.36,44.01,28.31,85,7.77,39,8.206,7.71,6.2
6/2/05 10:00,11.42,43.9,28.24,86,7.86,39,8.228,7.74,6.7
6/2/05 10:15,11.73,43.39,27.88,90.8,8.26,40,8.261,7.78,6.7
6/2/05 10:30,11.86,43.22,27.77,92.5,8.4,40,8.303,7.78,6.8
6/2/05 10:45,12.63,42.5,27.29,103.6,9.28,41,8.361,7.89,6.5
6/2/05 11:00,12.67,42.44,27.25,105.4,9.44,41,8.41,7.91,6.5
6/2/05 11:15,12.96,42.11,27.02,110.9,9.88,42,8.454,7.96,6.4
6/2/05 11:30,12.98,42.08,27,110.1,9.8,41,8.491,7.96,7
6/2/05 11:45,11.99,43.15,27.73,94.3,8.54,40,8.512,7.82,7.9
6/2/05 12:00,11.46,43.86,28.21,85.6,7.82,39,8.527,7.73,6.8
6/2/05 12:15,11.41,43.94,28.26,85.1,7.78,39,8.556,7.71,7.6
6/2/05 12:30,11.46,43.86,28.21,86.1,7.86,39,8.593,7.72,8.6
6/2/05 12:45,11.36,44.04,28.33,84.1,7.69,39,8.636,7.72,8.3
6/2/05 13:00,11.36,44.04,28.33,84.4,7.72,39,8.683,7.72,9
6/2/05 13:15,11.4,43.96,28.28,85,7.77,39,8.731,7.72,9.7
6/2/05 13:30,11.34,44.07,28.36,83.4,7.63,39,8.797,7.71,9.8
6/2/05 13:45,11.37,44.02,28.32,84.1,7.69,39,8.875,7.7,8.8
6/2/05 14:00,11.37,44.03,28.33,83,7.59,39,9.057,7.7,7.6
6/2/05 14:15,11.6,43.63,28.06,88.5,8.07,40,9.144,7.74,6.5
6/2/05 14:30,11.59,43.66,28.07,86.8,7.91,40,9.175,7.75,7
6/2/05 14:45,12.06,43.13,27.72,95.9,8.67,40,9.06,7.79,6.5
6/2/05 15:00,11.82,43.43,27.92,91.3,8.29,40,9.127,7.76,7.7
6/2/05 15:15,12.76,42.32,27.16,106.8,9.54,41,9.18,7.93,6.6
6/2/05 15:30,12.39,42.77,27.47,96.6,8.69,40,9.209,7.85,6.4
6/2/05 15:45,11.91,43.35,27.87,89.4,8.1,40,9.235,7.75,6.5
6/2/05 16:00,11.61,43.75,28.14,87.4,7.96,40,9.223,7.72,6.8
6/2/05 16:15,11.77,43.53,27.99,88.9,8.07,40,9.236,7.76,6.7
6/2/05 16:30,11.44,44,28.31,84.2,7.68,39,9.213,7.72,7
6/2/05 16:45,11.3,44.28,28.5,82,7.5,39,9.236,7.69,6.6
6/2/05 17:00,11.2,44.59,28.72,80.5,7.36,39,9.224,7.7,6.5
6/2/05 17:15,11.25,44.55,28.69,81,7.41,39,9.21,7.7,6.5
6/2/05 17:30,11.14,44.84,28.89,78.8,7.21,39,9.217,7.68,7.2
6/2/05 17:45,11.15,44.85,28.9,79.1,7.24,39,9.214,7.69,8.8
6/2/05 18:00,11.22,44.69,28.79,80.1,7.33,39,9.246,7.71,8.6
6/2/05 18:15,11.25,44.56,28.7,79.7,7.29,39,9.239,7.71,9.9
6/2/05 18:30,11.28,44.47,28.63,80.9,7.39,39,9.238,7.71,9.5
6/2/05 18:45,11.28,44.45,28.62,80.7,7.38,39,9.247,7.71,10
6/2/05 19:00,11.26,44.49,28.65,80.3,7.34,39,9.226,7.7,10.6
6/2/05 19:15,11.32,44.39,28.58,80,7.31,39,9.189,7.71,9.8
6/2/05 19:30,11.4,44.26,28.49,81.9,7.47,39,9.094,7.72,10.2
6/2/05 19:45,11.36,44.32,28.54,79.7,7.28,39,9.05,7.71,10.4
6/2/05 20:00,11.37,44.32,28.53,81.3,7.42,39,8.992,7.69,10.3
6/2/05 20:15,11.37,44.25,28.49,81.5,7.44,39,8.902,7.69,9.2
6/2/05 20:30,11.36,44.25,28.48,81.5,7.44,39,8.853,7.71,9.8
6/2/05 20:45,11.37,44.23,28.47,81.4,7.44,39,8.779,7.7,8.9
6/2/05 21:00,11.39,44.22,28.46,81.3,7.42,39,8.716,7.69,8.3
6/2/05 21:15,11.41,44.22,28.47,81.3,7.42,39,8.664,7.7,8.1
6/2/05 21:30,11.41,44.19,28.44,81.5,7.44,39,8.61,7.7,7.2
6/2/05 21:45,11.42,44.16,28.42,81.4,7.43,39,8.581,7.7,7.8
6/2/05 22:00,11.45,44.07,28.36,82.1,7.49,39,8.58,7.69,9
6/2/05 22:15,11.54,43.94,28.27,83.6,7.62,39,8.582,7.72,8.2
6/2/05 22:30,11.52,44,28.31,83.2,7.58,39,8.601,7.7,8.7
6/2/05 22:45,11.54,43.98,28.3,83.6,7.62,39,8.633,7.72,7.1
6/2/05 23:00,11.6,43.93,28.26,83.8,7.63,39,8.668,7.72,8.8
6/2/05 23:15,11.63,43.89,28.24,84.8,7.72,39,8.682,7.73,8
6/2/05 23:30,11.56,43.93,28.26,82.9,7.55,39,8.699,7.71,9
6/2/05 23:45,11.57,43.92,28.26,83.1,7.57,39,8.712,7.7,8.7
6/3/05 0:00,11.58,43.91,28.25,82.7,7.53,39,8.731,7.71,9.4
6/3/05 0:15,11.98,43.68,28.1,85.9,7.76,40,8.752,7.75,9
6/3/05 0:30,13.15,42.71,27.45,99.3,8.79,41,8.761,7.88,8.6
6/3/05 0:45,13.26,42.63,27.4,104.6,9.24,41,8.768,7.9,9.4
6/3/05 1:00,11.74,43.79,28.18,83.9,7.62,39,8.761,7.73,8.6
6/3/05 1:15,11.66,43.85,28.21,82.8,7.53,39,8.766,7.71,9.1
6/3/05 1:30,11.71,43.81,28.19,83.2,7.56,39,8.793,7.71,9.3
6/3/05 1:45,11.74,43.74,28.14,83.3,7.57,39,8.836,7.72,8.6
6/3/05 2:00,12.15,43.36,27.88,86,7.75,40,8.903,7.75,8.2
6/3/05 2:15,12.85,42.76,27.48,97.7,8.7,41,8.976,7.88,10.8
6/3/05 2:30,13.4,42.29,27.16,106.3,9.38,41,9.05,7.97,10
6/3/05 2:45,12.93,42.65,27.41,98.2,8.74,41,9.097,7.88,10.4
6/3/05 3:00,13.14,42.47,27.28,106.9,9.48,41,9.098,7.89,9.5
6/3/05 3:15,14.27,41.65,26.73,118.7,10.31,42,9.167,8.07,9.6
6/3/05 3:30,14.39,41.55,26.66,120.5,10.45,43.1,9.167,8.09,9.1
6/3/05 3:45,14.16,41.69,26.75,117.8,10.25,42,9.228,8.06,9.2
6/3/05 4:00,14.18,41.63,26.71,118.1,10.28,43.1,9.236,8.05,9.9
6/3/05 4:15,14.15,41.6,26.69,118.4,10.31,43.1,9.235,8.06,9
6/3/05 4:30,14.12,41.61,26.69,117.7,10.26,42,9.24,8.06,8.3
6/3/05 4:45,14.15,41.56,26.66,118.1,10.29,42,9.247,8.07,9.2
6/3/05 5:00,13.44,42.17,27.08,108.6,9.58,42,9.243,7.96,8.5
6/3/05 5:15,12.04,43.37,27.89,86.8,7.84,40,9.226,7.74,9.8
6/3/05 5:30,12.21,43.19,27.76,87.4,7.87,39,9.229,7.76,9.8
6/3/05 5:45,11.93,43.5,27.97,85,7.69,39,9.227,7.72,10
6/3/05 6:00,11.59,43.94,28.27,79.3,7.22,39,9.217,7.66,9.9
6/3/05 6:15,11.48,44.09,28.38,77.7,7.08,39,9.209,7.66,10.3
6/3/05 6:30,11.54,43.98,28.3,79.1,7.21,39,9.215,7.68,11
6/3/05 6:45,11.6,43.9,28.25,79.9,7.27,39,9.212,7.68,10.6
6/3/05 7:00,11.57,43.97,28.29,79.2,7.21,39,9.168,7.66,10.1
6/3/05 7:15,11.55,44.01,28.32,77.9,7.1,39,9.091,7.67,10.1
6/3/05 7:30,11.52,44.06,28.36,76.8,7,39,9.002,7.64,7.3
6/3/05 7:45,11.53,44.08,28.37,75.7,6.89,39,8.91,7.65,7.2
6/3/05 8:00,11.56,44.02,28.33,77.6,7.06,39,8.822,7.67,7.3
6/3/05 8:15,11.57,43.98,28.3,77.7,7.08,39,8.737,7.67,8
6/3/05 8:30,11.63,43.89,28.24,78.7,7.16,39,8.664,7.67,7.5
6/3/05 8:45,11.69,43.83,28.2,80.1,7.27,39,8.59,7.7,7.9
6/3/05 9:00,11.71,43.8,28.18,80.2,7.29,39,8.53,7.7,6.9
6/3/05 9:15,11.68,43.8,28.18,79.7,7.25,39,8.479,7.67,8.9
6/3/05 9:30,11.74,43.72,28.12,80.3,7.3,39,8.438,7.69,7.1
6/3/05 9:45,11.81,43.63,28.06,81.3,7.37,39,8.409,7.71,7.2
6/3/05 10:00,11.87,43.55,28.01,82.2,7.45,39,8.384,7.72,6.2
6/3/05 10:15,11.93,43.49,27.96,83.2,7.53,39,8.392,7.73,6.7
6/3/05 10:30,12.09,43.33,27.86,85.3,7.7,39,8.404,7.75,6.4
6/3/05 10:45,12.49,42.93,27.59,90.9,8.15,40,8.433,7.82,6.9
6/3/05 11:00,12.61,42.82,27.52,92.6,8.29,40,8.48,7.82,6.9
6/3/05 11:15,12.8,42.66,27.41,94.9,8.47,40,8.525,7.86,7
6/3/05 11:30,12.97,42.52,27.32,97.6,8.68,41,8.562,7.89,7.2
6/3/05 11:45,13.4,42.15,27.06,110.4,9.74,42,8.617,7.97,7.2
6/3/05 12:00,14.04,41.58,26.67,117.7,10.28,43.1,8.668,8.06,8.4
6/3/05 12:15,14.38,41.28,26.47,124,10.77,43.1,8.701,8.11,8.7
6/3/05 12:30,13.02,42.52,27.32,97,8.62,41,8.638,7.87,8.6
6/3/05 12:45,12.2,43.26,27.82,85.9,7.74,40,8.68,7.73,9.8
6/3/05 13:00,12.27,43.19,27.76,86.9,7.82,40,8.733,7.75,9
6/3/05 13:15,12.07,43.41,27.91,86.4,7.8,40,8.772,7.72,7.9
6/3/05 13:30,12.56,42.92,27.58,91,8.15,40,8.825,7.81,9.6
6/3/05 13:45,12.55,42.92,27.58,91.1,8.16,40,8.88,7.81,10.3
6/3/05 14:00,12.62,42.83,27.52,91.6,8.2,40,8.96,7.81,10.2
6/3/05 14:15,12.82,42.64,27.4,93.2,8.31,41,9.037,7.84,9.4
6/3/05 14:30,12.26,43.2,27.77,85.7,7.71,40,9.15,7.76,9.8
6/3/05 14:45,11.99,43.51,27.98,80.4,7.27,39,9.15,7.68,11.7
6/3/05 15:00,12.06,43.43,27.93,81.6,7.37,39,9.174,7.71,12.6
6/3/05 15:15,11.94,43.57,28.03,79.5,7.19,39,9.186,7.68,13.2
6/3/05 15:30,11.93,43.65,28.08,79.7,7.21,39,9.184,7.69,13.8
6/3/05 15:45,12.21,43.29,27.83,84.3,7.59,39,9.199,7.76,13.1
6/3/05 16:00,12.51,42.98,27.63,86,7.71,39,9.192,7.79,13
6/3/05 16:15,12.3,43.25,27.81,82.9,7.45,39,9.189,7.75,12.5
6/3/05 16:30,12.66,42.8,27.5,89.1,7.97,40,9.211,7.82,11.2
6/3/05 16:45,11.92,43.65,28.08,79.6,7.2,39,9.188,7.68,11.9
6/3/05 17:00,12.3,43.2,27.77,80.7,7.26,39,9.206,7.76,10.2
6/3/05 17:15,12.16,43.37,27.89,82.4,7.42,39,9.2,7.71,10.4
6/3/05 17:30,11.84,43.77,28.16,77.4,7.01,39,9.186,7.65,11.1
6/3/05 17:45,12.08,43.52,27.99,80.8,7.29,39,9.188,7.7,11.5
6/3/05 18:00,11.63,44.14,28.42,74.1,6.73,39,9.189,7.63,10.3
6/3/05 18:15,11.55,44.29,28.52,75.3,6.85,39,9.195,7.63,10.8
6/3/05 18:30,11.86,43.79,28.18,77.1,6.98,39,9.181,7.65,11.3
6/3/05 18:45,11.69,44.06,28.37,74.4,6.76,38,9.197,7.63,11.3
6/3/05 19:00,11.97,43.66,28.09,77.4,7,39,9.169,7.64,10.9
6/3/05 19:15,12.15,43.43,27.94,79.6,7.17,39,9.182,7.67,8.4
6/3/05 19:30,11.96,43.7,28.12,77.4,6.99,39,9.147,7.66,9.7
6/3/05 19:45,11.99,43.56,28.02,76.8,6.95,39,9.165,7.7,11.4
6/3/05 20:00,11.74,43.94,28.28,75.7,6.87,38,9.132,7.64,10.4
6/3/05 20:15,11.64,44.08,28.37,74,6.73,39,9.103,7.62,10.5
6/3/05 20:30,11.65,44.06,28.36,73.9,6.72,39,9.07,7.63,10.3
6/3/05 20:45,11.61,44.12,28.41,73.1,6.65,38,8.98,7.61,10
6/3/05 21:00,11.63,44.1,28.39,73.5,6.68,39,8.884,7.63,10.8
6/3/05 21:15,11.61,44.13,28.41,73.1,6.64,38,8.794,7.63,11.5
6/3/05 21:30,11.62,44.13,28.41,73,6.63,38,8.711,7.62,11.1
6/3/05 21:45,11.62,44.12,28.41,72.8,6.62,38,8.644,7.61,9.2
6/3/05 22:00,11.64,44.09,28.38,73,6.63,38,8.591,7.63,9.3
6/3/05 22:15,11.72,43.99,28.31,74.2,6.73,38,8.539,7.63,8.9
6/3/05 22:30,11.78,43.9,28.26,75,6.8,39,8.501,7.64,9.5
6/3/05 22:45,11.87,43.78,28.17,76.4,6.91,39,8.486,7.67,9
6/3/05 23:00,11.97,43.67,28.1,77.5,7.01,39,8.487,7.68,8.7
6/3/05 23:15,12.18,43.44,27.94,80.3,7.23,39,8.493,7.72,9.8
6/3/05 23:30,12.31,43.29,27.84,82.2,7.39,39,8.512,7.73,10.8
6/3/05 23:45,12.71,42.88,27.56,87.4,7.81,40,8.539,7.8,10.2
6/4/05 0:00,13.15,42.41,27.24,94.6,8.39,40,8.566,7.87,10.6
6/4/05 0:15,13.57,41.98,26.95,100.2,8.82,41,8.593,7.92,11.2
6/4/05 0:30,13.74,41.82,26.84,102.7,9.01,41,8.617,7.96,10.9
6/4/05 0:45,12.04,43.59,28.04,76.9,6.94,39,8.628,7.65,11.3
6/4/05 1:00,12.37,43.24,27.81,81.5,7.32,39,8.651,7.7,10.5
6/4/05 1:15,12.64,42.94,27.6,85.9,7.68,39,8.665,7.77,10.9
6/4/05 1:30,12.28,43.29,27.83,80.2,7.21,39,8.677,7.69,10.7
6/4/05 1:45,11.97,43.65,28.08,75,6.78,39,8.701,7.65,10.9
6/4/05 2:00,11.99,43.63,28.07,75.4,6.82,39,8.723,7.64,10.3
6/4/05 2:15,12.11,43.49,27.97,77,6.95,39,8.749,7.68,10.6
6/4/05 2:30,12.34,43.25,27.81,80.6,7.24,39,8.794,7.72,10.3
6/4/05 2:45,12.15,43.45,27.95,76.1,6.86,39,8.848,7.67,10.6
6/4/05 3:00,12.97,42.63,27.39,87.6,7.78,40,8.907,7.82,10.1
6/4/05 3:15,13.11,42.51,27.31,88.3,7.83,40,8.982,7.81,10.8
6/4/05 3:30,12.7,42.91,27.58,82.2,7.34,39,9.054,7.74,10.1
6/4/05 3:45,12.72,42.89,27.57,83,7.41,40,9.119,7.74,10.4
6/4/05 4:00,12.86,42.82,27.53,84.1,7.48,40,9.13,7.74,10.3
6/4/05 4:15,14.98,40.94,26.24,114.4,9.83,42,9.136,8.08,10.7
6/4/05 4:30,14.9,41.03,26.3,112.4,9.67,42,9.132,8.05,9.4
6/4/05 4:45,15.13,40.82,26.15,118.6,10.16,43.1,9.138,8.11,10.3
6/4/05 5:00,14.29,41.52,26.63,102.8,8.93,41,9.147,7.97,10
6/4/05 5:15,12.63,42.99,27.63,81.5,7.29,39,9.146,7.7,10.6
6/4/05 5:30,12.71,42.87,27.55,82.1,7.33,40,9.142,7.71,10.6
6/4/05 5:45,12.39,43.25,27.82,77.6,6.96,39,9.141,7.68,10.1
6/4/05 6:00,12.61,43.02,27.66,78.7,7.04,39,9.142,7.69,11.2
6/4/05 6:15,12.66,43.02,27.66,78.3,6.99,39,9.143,7.69,11.2
6/4/05 6:30,13.08,42.73,27.47,84,7.45,39,9.139,7.75,10.8
6/4/05 6:45,13,42.77,27.49,84.6,7.51,39,9.142,7.75,12
6/4/05 7:00,11.99,43.79,28.18,72.8,6.57,38,9.131,7.62,10.6
6/4/05 7:15,11.67,44.19,28.46,68.3,6.19,38,9.127,7.56,8.8
6/4/05 7:30,11.62,44.26,28.5,66.4,6.03,38,9.126,7.55,8.5
6/4/05 7:45,11.64,44.22,28.47,66.8,6.07,38,9.127,7.54,8.5
6/4/05 8:00,11.67,44.19,28.45,67,6.08,38,9.125,7.56,10
6/4/05 8:15,11.66,44.19,28.46,67.4,6.12,38,9.057,7.55,9.1
6/4/05 8:30,11.68,44.17,28.44,68.1,6.18,38,8.961,7.56,9.5
6/4/05 8:45,11.68,44.17,28.44,68.2,6.19,38,8.872,7.57,9.7
6/4/05 9:00,11.7,44.14,28.42,68.6,6.22,38,8.786,7.57,9.8
6/4/05 9:15,11.69,44.15,28.43,68.2,6.18,38,8.705,7.56,9.8
6/4/05 9:30,11.66,44.22,28.48,64.8,5.88,38,8.626,7.53,8.9
6/4/05 9:45,11.92,43.87,28.24,71,6.42,38,8.554,7.58,7.7
6/4/05 10:00,11.98,43.8,28.19,72,6.5,38,8.491,7.59,6.7
6/4/05 10:15,11.92,43.88,28.24,68.1,6.15,38,8.447,7.58,6.1
6/4/05 10:30,11.93,43.87,28.24,69.8,6.31,38,8.411,7.56,7.4
6/4/05 10:45,11.77,44.1,28.39,64.7,5.86,38,8.385,7.53,7.1
6/4/05 11:00,11.78,44.09,28.39,65.5,5.94,38,8.37,7.53,7.1
6/4/05 11:15,11.83,44.01,28.34,66.5,6.02,38,8.368,7.54,7.4
6/4/05 11:30,11.85,43.98,28.31,66.9,6.05,38,8.384,7.52,7.1
6/4/05 11:45,11.85,43.99,28.32,67,6.06,38,8.415,7.53,7.4
6/4/05 12:00,11.84,44.01,28.34,66.1,5.98,38,8.459,7.52,7.5
6/4/05 12:15,11.83,44.03,28.35,66.4,6.01,38,8.505,7.54,9.4
6/4/05 12:30,11.9,43.93,28.28,67.7,6.12,38,8.552,7.54,8.6
6/4/05 12:45,12.08,43.7,28.12,69.4,6.26,38,8.531,7.58,8.2
6/4/05 13:00,12.57,43.17,27.76,76.9,6.87,39,8.594,7.67,8.8
6/4/05 13:15,12.87,42.94,27.61,79.1,7.04,39,8.653,7.69,9
6/4/05 13:30,13.19,42.68,27.43,83.2,7.36,40,8.705,7.73,8.1
6/4/05 13:45,11.99,43.86,28.23,67.4,6.08,38,8.755,7.55,10.1
6/4/05 14:00,12.26,43.6,28.06,70.8,6.36,38,8.874,7.58,9.6
6/4/05 14:15,12.07,43.82,28.21,67.7,6.1,38,8.989,7.56,9.7
6/4/05 14:30,12.2,43.7,28.13,67,6.02,38,9.021,7.56,9.9
6/4/05 14:45,12.7,43.24,27.82,72,6.42,39,9.064,7.64,10.3
6/4/05 15:00,12.26,43.63,28.08,69,6.2,38,9.049,7.58,10.6
6/4/05 15:15,12.52,43.4,27.92,70.5,6.3,38,9.096,7.59,11.4
6/4/05 15:30,13.05,42.86,27.55,80.7,7.15,39,9.102,7.69,12.3
6/4/05 15:45,12.82,43.08,27.7,69.9,6.22,38,9.098,7.59,13.2
6/4/05 16:00,12.6,43.28,27.84,66.5,5.94,38,9.113,7.54,14.6
6/4/05 16:15,12.68,43.21,27.79,67.3,6,38,9.125,7.55,14.8
6/4/05 16:30,12.72,43.17,27.77,67.6,6.02,38,9.114,7.56,14.6
6/4/05 16:45,12.86,43.07,27.7,68.6,6.1,38,9.113,7.57,14.9
6/4/05 17:00,12.75,43.17,27.77,66.8,5.95,38,9.118,7.54,15.6
6/4/05 17:15,12.47,43.39,27.92,64.9,5.81,38,9.121,7.51,15.5
6/4/05 17:30,13.31,42.85,27.56,76.6,6.75,39,9.139,7.66,15.4
6/4/05 17:45,13.04,43.01,27.66,73.6,6.52,39,9.137,7.6,14.8
6/4/05 18:00,12.98,43.03,27.68,71.5,6.34,38,9.148,7.6,14.6
6/4/05 18:15,13.13,42.95,27.62,74.8,6.62,39,9.145,7.64,14.5
6/4/05 18:30,13.02,43,27.65,70.9,6.28,38,9.153,7.6,12.4
6/4/05 18:45,12.16,43.74,28.15,63.6,5.72,38,9.14,7.51,13
6/4/05 19:00,12.08,43.86,28.24,67,6.04,38,9.132,7.54,12.9
6/4/05 19:15,11.99,44,28.33,70.1,6.32,38,9.105,7.55,12.5
6/4/05 19:30,12.07,43.95,28.3,73.5,6.62,38,9.109,7.61,12.8
6/4/05 19:45,12.01,43.95,28.3,71,6.4,38,9.097,7.57,13.3
6/4/05 20:00,11.97,43.94,28.29,69.1,6.24,38,9.117,7.55,12.5
6/4/05 20:15,11.96,43.97,28.31,68.7,6.21,38,9.115,7.56,11.6
6/4/05 20:30,11.99,43.89,28.26,68,6.14,38,9.106,7.57,15.3
6/4/05 20:45,11.97,43.91,28.26,68,6.14,38,9.109,7.57,12
6/4/05 21:00,11.97,43.92,28.27,68,6.14,38,9.084,7.56,13.3
6/4/05 21:15,11.97,43.92,28.27,67.7,6.11,38,9.067,7.56,11.5
6/4/05 21:30,11.98,43.91,28.27,68.1,6.14,38,9.012,7.55,10.8
6/4/05 21:45,12,43.89,28.26,68.2,6.15,38,8.927,7.56,10.5
6/4/05 22:00,12.02,43.86,28.24,68.3,6.16,38,8.843,7.56,11.9
6/4/05 22:15,12.07,43.81,28.2,68.5,6.17,38,8.762,7.55,12.7
6/4/05 22:30,12.12,43.77,28.17,68.8,6.2,38,8.69,7.56,13.1
6/4/05 22:45,12.14,43.74,28.15,69,6.21,38,8.63,7.57,12.2
6/4/05 23:00,12.16,43.73,28.14,69.2,6.23,38,8.591,7.58,11.4
6/4/05 23:15,12.23,43.66,28.1,69.9,6.29,38,8.568,7.59,11.1
6/4/05 23:30,12.27,43.6,28.06,70.2,6.31,38,8.563,7.59,10.8
6/4/05 23:45,12.3,43.58,28.05,70.4,6.32,38,8.575,7.59,11.4
6/5/05 0:00,12.27,43.62,28.07,69.8,6.27,38,8.594,7.57,12.6
6/5/05 0:15,12.32,43.56,28.03,70.3,6.31,39,8.605,7.58,13
6/5/05 0:30,12.35,43.54,28.02,70.4,6.32,38,8.622,7.59,13.6
6/5/05 0:45,12.41,43.47,27.97,71,6.36,38,8.628,7.6,12.2
6/5/05 1:00,12.42,43.46,27.96,71.2,6.38,39,8.639,7.61,13.4
6/5/05 1:15,12.45,43.42,27.94,71.2,6.38,38,8.649,7.6,13.3
6/5/05 1:30,12.35,43.52,28.01,69.4,6.23,38,8.657,7.57,13
6/5/05 1:45,12.34,43.53,28.01,69.6,6.24,38,8.66,7.58,12.7
6/5/05 2:00,12.32,43.54,28.02,68.9,6.18,38,8.677,7.58,12.8
6/5/05 2:15,12.33,43.53,28.01,68.8,6.18,38,8.685,7.58,12.8
6/5/05 2:30,12.33,43.52,28.01,69.1,6.2,38,8.708,7.58,12.7
6/5/05 2:45,12.33,43.52,28.01,68.9,6.19,38,8.732,7.58,13.5
6/5/05 3:00,12.36,43.49,27.98,68.6,6.16,38,8.762,7.57,13.2
6/5/05 3:15,12.4,43.45,27.96,68.6,6.15,38,8.795,7.56,11.7
6/5/05 3:30,12.41,43.43,27.94,68.7,6.16,38,8.853,7.57,12.5
6/5/05 3:45,12.52,43.35,27.89,71.5,6.39,39,8.918,7.59,12.4
6/5/05 4:00,12.48,43.39,27.91,70.5,6.31,38,8.991,7.58,12.5
6/5/05 4:15,12.52,43.33,27.88,69.4,6.21,38,9.07,7.57,11.3
6/5/05 4:30,12.62,43.25,27.82,68.8,6.15,38,9.105,7.57,11
6/5/05 4:45,12.57,43.28,27.84,68.7,6.14,38,9.08,7.58,11.5
6/5/05 5:00,12.65,43.23,27.81,68,6.07,38,9.094,7.57,11.5
6/5/05 5:15,12.72,43.16,27.76,71.5,6.37,38,9.106,7.62,11.4
6/5/05 5:30,12.68,43.19,27.78,71.8,6.41,38,9.107,7.62,11.4
6/5/05 5:45,12.68,43.2,27.79,71,6.33,38,9.119,7.61,12